EA1HBP-10 Weather Reports


time (UTC)temp
C
wind
direction
speed
KPH
gust
KPH
rain 1hr
cm
rain 24hr
cm
rain mn
cm
humidity
%
barometer
mb
20260506215801 10 37 0.0 3.2 0.00 0.00 0.00 78 1008.6
20260506215100 10 26 0.0 3.2 0.00 0.00 0.00 78 1008.7
20260506214400 10 80 0.0 3.2 0.00 0.00 0.00 78 1008.8
20260506213700 10 124 0.0 3.2 0.00 0.00 0.00 77 1008.7
20260506213000 10 141 1.6 3.2 0.00 0.00 0.00 77 1008.6
20260506212300 10 134 0.0 3.2 0.00 0.00 0.00 77 1008.6
20260506211600 10 158 0.0 3.2 0.00 0.00 0.00 76 1008.6
20260506210900 10 177 0.0 3.2 0.00 0.00 0.00 74 1008.6
20260506210200 10 175 0.0 3.2 0.00 0.00 0.00 74 1008.5
20260506205500 10 181 0.0 3.2 0.00 0.00 0.00 73 1008.6
20260506204800 10 170 1.6 3.2 0.00 0.00 0.00 72 1008.6
20260506204100 11 136 0.0 3.2 0.00 0.00 0.00 71 1008.4
20260506203400 11 131 0.0 1.6 0.00 0.00 0.00 70 1008.5
20260506202000 11 162 0.0 3.2 0.00 0.00 0.00 67 1008.3
20260506201300 11 146 0.0 3.2 0.00 0.00 0.00 67 1008.1
20260506200601 12 139 0.0 3.2 0.00 0.00 0.00 66 1008.0
20260506195900 12 181 0.0 3.2 0.00 0.00 0.00 65 1008.1
20260506194500 12 0 0.0 0.0 0.00 0.00 0.00 63 1007.9
20260506193100 12 245 0.0 3.2 0.00 0.00 0.00 62 1007.9
20260506192400 13 208 0.0 3.2 0.00 0.00 0.00 59 1007.8
20260506191700 13 234 0.0 4.8 0.00 0.00 0.00 56 1007.8
20260506191000 13 263 1.6 6.4 0.00 0.00 0.00 55 1007.8
20260506190300 14 291 3.2 8.0 0.00 0.00 0.00 50 1007.7
20260506185600 14 300 0.0 8.0 0.00 0.00 0.00 49 1007.6
20260506184900 14 300 3.2 8.0 0.00 0.00 0.00 48 1007.7
20260506184200 13 234 0.0 9.7 0.00 0.00 0.00 46 1007.7
20260506182800 13 237 3.2 8.0 0.00 0.00 0.00 49 1007.7
20260506180659 14 271 1.6 6.4 0.00 0.00 0.00 46 1007.7
20260506180000 14 186 0.0 9.7 0.00 0.00 0.00 44 1007.6
20260506175259 15 185 3.2 8.0 0.00 0.00 0.00 41 1007.6
20260506173859 15 230 3.2 11.3 0.00 0.00 0.00 41 1007.8
20260506173159 15 215 4.8 12.9 0.00 0.00 0.00 42 1007.8
20260506172459 15 208 6.4 20.9 0.00 0.00 0.00 42 1007.8
20260506171759 15 212 6.4 20.9 0.00 0.00 0.00 41 1007.8
20260506170359 16 233 3.2 16.1 0.00 0.00 0.00 36 1007.8
20260506165659 16 266 6.4 16.1 0.00 0.00 0.00 34 1007.6
20260506164959 17 279 8.0 16.1 0.00 0.00 0.00 34 1007.6
20260506164259 17 270 3.2 12.9 0.00 0.00 0.00 30 1007.5
20260506163559 17 241 3.2 9.7 0.00 0.00 0.00 31 1007.8
20260506162859 16 232 3.2 9.7 0.00 0.03 0.00 31 1007.7
20260506162159 16 254 4.8 12.9 0.00 0.03 0.00 31 1007.6
20260506161500 17 254 6.4 12.9 0.00 0.03 0.00 29 1007.6
20260506160759 17 250 6.4 12.9 0.00 0.03 0.00 26 1007.7
20260506155359 18 261 3.2 14.5 0.00 0.03 0.00 30 1007.7
20260506154659 17 259 6.4 12.9 0.00 0.03 0.00 29 1007.7
20260506153959 17 262 6.4 12.9 0.00 0.03 0.00 27 1007.7
20260506153301 17 262 3.2 9.7 0.00 0.03 0.00 27 1007.8
20260506152600 18 288 3.2 12.9 0.00 0.03 0.00 25 1007.9
20260506151859 18 268 8.0 12.9 0.00 0.03 0.00 24 1007.8
20260506151200 17 219 3.2 12.9 0.00 0.03 0.00 27 1008.0
20260506150500 17 222 3.2 11.3 0.00 0.03 0.00 26 1008.1
20260506145759 17 231 3.2 11.3 0.00 0.03 0.00 26 1008.2
20260506144359 18 261 3.2 12.9 0.00 0.03 0.00 23 1008.2
20260506143659 18 250 6.4 14.5 0.00 0.03 0.00 22 1008.1
20260506142959 18 202 3.2 12.9 0.00 0.03 0.00 22 1008.3
20260506142259 19 195 6.4 12.9 0.00 0.03 0.00 22 1008.4
20260506140859 17 336 3.2 16.1 0.00 0.03 0.00 23 1008.6
20260506135500 18 241 6.4 16.1 0.00 0.03 0.00 22 1008.6
20260506134800 18 252 1.6 12.9 0.00 0.05 0.00 22 1008.6
20260506134059 18 253 8.0 12.9 0.00 0.10 0.00 22 1008.7
20260506133400 18 235 3.2 12.9 0.00 0.10 0.00 28 1008.8
20260506132659 18 265 6.4 12.9 0.00 0.10 0.00 25 1008.8
20260506131959 17 305 6.4 12.9 0.00 0.10 0.00 24 1008.8
20260506131300 18 299 6.4 12.9 0.00 0.10 0.00 25 1008.9
20260506130559 17 306 4.8 12.9 0.00 0.10 0.00 25 1009.0
20260506125159 17 219 3.2 12.9 0.00 0.10 0.00 26 1009.1
20260506124459 17 282 4.8 11.3 0.00 0.10 0.00 30 1009.2
20260506123800 17 274 4.8 12.9 0.00 0.10 0.00 30 1009.3
20260506123100 17 288 6.4 12.9 0.00 0.10 0.00 30 1009.4
20260506122359 16 305 3.2 14.5 0.00 0.10 0.00 31 1009.5
20260506120959 17 259 6.4 12.9 0.00 0.10 0.00 29 1009.7
20260506120300 16 254 6.4 12.9 0.00 0.10 0.00 33 1009.8
20260506114859 16 252 4.8 12.9 0.00 0.10 0.00 34 1010.0
20260506114200 16 215 3.2 12.9 0.00 0.10 0.00 39 1010.1
20260506113459 16 289 3.2 11.3 0.00 0.10 0.00 39 1010.1
20260506112100 16 195 3.2 8.0 0.00 0.10 0.00 42 1010.4
20260506110659 16 280 3.2 12.9 0.00 0.10 0.00 41 1010.4
20260506105959 15 131 3.2 12.9 0.00 0.10 0.00 46 1010.7
20260506105300 15 280 6.4 12.9 0.00 0.10 0.00 43 1010.6
20260506104559 15 270 3.2 11.3 0.00 0.10 0.00 48 1010.5
20260506103859 15 250 3.2 12.9 0.00 0.10 0.00 47 1010.6
20260506102459 14 221 4.8 11.3 0.00 0.10 0.00 52 1010.7
20260506101800 13 256 4.8 9.7 0.00 0.10 0.00 55 1010.8
20260506101059 13 262 3.2 11.3 0.00 0.10 0.00 54 1010.7
20260506100400 13 228 1.6 6.4 0.00 0.10 0.00 62 1010.6
20260506095659 12 239 1.6 8.0 0.00 0.10 0.00 61 1010.7
20260506095000 12 229 3.2 9.7 0.00 0.10 0.00 60 1010.7
20260506093559 12 238 3.2 6.4 0.00 0.10 0.00 61 1010.8
20260506092859 12 262 3.2 11.3 0.00 0.10 0.00 61 1010.8
20260506092159 13 257 4.8 11.3 0.00 0.10 0.00 57 1010.9
20260506085359 12 271 4.8 12.9 0.00 0.10 0.00 73 1010.8
20260506084659 12 249 3.2 11.3 0.00 0.10 0.00 76 1010.9
20260506083959 11 252 4.8 9.7 0.00 0.10 0.00 79 1010.9
20260506083259 11 283 3.2 11.3 0.00 0.10 0.00 81 1010.9
20260506082559 11 282 3.2 11.3 0.00 0.10 0.00 83 1010.9
20260506081859 11 291 3.2 8.0 0.00 0.10 0.00 86 1011.0
20260506081159 10 294 3.2 8.0 0.00 0.10 0.00 86 1011.0
20260506080459 10 276 3.2 8.0 0.00 0.10 0.00 88 1011.1
20260506072959 8 30 0.0 6.4 0.00 0.10 0.00 99 1011.1
20260506072259 8 30 3.2 6.4 0.00 0.10 0.00 99 1011.1
20260506071559 8 63 1.6 6.4 0.00 0.10 0.00 99 1011.1
20260506070859 7 108 1.6 8.0 0.00 0.10 0.00 99 1011.1
20260506070158 7 112 3.2 4.8 0.00 0.10 0.00 99 1011.1
20260506061959 5 95 1.6 4.8 0.00 0.10 0.00 99 1011.1
20260506061258 5 105 0.0 4.8 0.00 0.10 0.00 99 1011.1
20260506060559 4 106 0.0 3.2 0.00 0.10 0.00 99 1011.1
20260506050958 4 79 0.0 4.8 0.00 0.10 0.00 99 1011.1
20260506050258 4 80 1.6 4.8 0.00 0.10 0.00 99 1011.0
20260506044858 5 53 1.6 3.2 0.00 0.10 0.00 99 1010.8
20260506044158 5 69 0.0 3.2 0.00 0.10 0.00 99 1010.8
20260506043458 5 93 0.0 3.2 0.00 0.10 0.00 99 1010.9
20260506042758 5 105 0.0 4.8 0.00 0.10 0.00 99 1010.9
20260506042058 5 104 1.6 4.8 0.00 0.10 0.00 99 1010.9
20260506041358 5 117 1.6 3.2 0.00 0.10 0.00 99 1011.1
20260506040658 5 111 0.0 3.2 0.00 0.10 0.00 99 1011.0
20260506035959 5 124 1.6 3.2 0.00 0.10 0.00 99 1011.1
20260506035258 5 89 0.0 1.6 0.00 0.10 0.00 99 1011.1
20260506034558 5 57 0.0 3.2 0.00 0.10 0.00 99 1011.1
20260506033858 5 100 0.0 4.8 0.00 0.10 0.00 99 1011.1
20260506033159 5 102 0.0 4.8 0.00 0.10 0.00 99 1011.1
20260506032458 5 102 0.0 6.4 0.00 0.10 0.00 99 1011.2
20260506031758 5 100 3.2 6.4 0.00 0.10 0.00 99 1011.1
20260506031059 5 91 0.0 6.4 0.00 0.10 0.00 99 1011.1
20260506025658 5 74 1.6 6.4 0.00 0.10 0.00 99 1011.1
20260506024958 5 82 1.6 3.2 0.00 0.10 0.00 99 1011.1
20260506023559 5 69 0.0 4.8 0.00 0.10 0.00 99 1011.0
20260506022158 5 128 0.0 3.2 0.00 0.10 0.00 99 1011.2
20260506021458 5 124 0.0 3.2 0.00 0.10 0.00 99 1011.2
20260506015359 4 119 0.0 3.2 0.00 0.10 0.00 99 1011.5
20260506014658 4 101 0.0 3.2 0.00 0.10 0.00 99 1011.4
20260506013958 4 91 1.6 4.8 0.00 0.10 0.00 99 1011.4
20260506011858 5 106 3.2 4.8 0.00 0.10 0.00 98 1011.3
20260506011159 5 17 1.6 3.2 0.00 0.10 0.00 97 1011.2
20260506010459 5 25 0.0 3.2 0.00 0.10 0.00 97 1011.3
20260506005058 5 85 1.6 3.2 0.00 0.10 0.00 96 1011.3
20260506004358 5 135 0.0 3.2 0.00 0.10 0.00 97 1011.5
20260506002959 5 130 0.0 3.2 0.00 0.10 0.00 96 1011.6
20260506002258 6 181 1.6 3.2 0.00 0.10 0.00 96 1011.6
20260506001558 6 158 0.0 3.2 0.00 0.10 0.00 96 1011.8
20260506000858 6 135 0.0 3.2 0.00 0.10 0.00 95 1011.7
20260506000159 6 138 0.0 4.8 0.00 0.10 0.00 95 1011.8
20260505235458 6 112 0.0 4.8 0.00 0.10 0.00 95 1011.9
20260505234758 6 263 0.0 4.8 0.00 0.10 0.00 96 1011.7
20260505234058 7 250 0.0 4.8 0.00 0.10 0.00 97 1011.8
20260505233358 7 254 1.6 6.4 0.00 0.10 0.00 97 1011.7
20260505232658 7 246 1.6 4.8 0.00 0.10 0.00 96 1011.7
20260505231958 7 269 0.0 4.8 0.00 0.10 0.00 95 1011.7
20260505231258 7 270 1.6 4.8 0.00 0.10 0.00 95 1011.8
20260505230558 7 269 1.6 4.8 0.00 0.10 0.00 94 1011.7
20260505225858 7 271 1.6 6.4 0.00 0.10 0.00 93 1011.6
20260505225158 7 267 1.6 6.4 0.00 0.10 0.00 93 1011.8
20260505224458 7 268 0.0 6.4 0.00 0.10 0.00 93 1011.9
20260505222358 8 262 1.6 6.4 0.00 0.10 0.00 92 1012.0
20260505221658 8 268 1.6 6.4 0.00 0.10 0.00 91 1012.1
20260505220958 8 232 3.2 4.8 0.00 0.10 0.00 91 1011.9